RON56 NFFN-ANYN

Flight info

Callsign RON56
Flight time 2h 51m
Altitude 36000
Route ALPHA NN G223 BULRO DCT KADNA
Aircraft B738/M-SDE2E3FGHIRWXY/LB1

Departure

Time 2026-04-29 10:53
Airport Nadi International Airport (NFFN)

Arrival

Time 2026-04-29 13:44
Airport Nauru International Airport (ANYN)
Time Latitude Longitude Altitude Speed Heading
2026-04-29 10:43 -17.75308 177.44985 31 ft 0 kts 103°
2026-04-29 10:47 -17.75308 177.44984 31 ft 1 kts 103°
2026-04-29 10:48 -17.75306 177.44974 29 ft 1 kts 103°
2026-04-29 10:48 -17.75304 177.44965 29 ft 1 kts 103°
2026-04-29 10:48 -17.75301 177.44955 28 ft 1 kts 103°
2026-04-29 10:48 -17.75299 177.44945 28 ft 1 kts 103°
2026-04-29 10:49 -17.75297 177.44935 29 ft 1 kts 103°
2026-04-29 10:49 -17.75297 177.44925 29 ft 1 kts 36°
2026-04-29 10:49 -17.75305 177.44919 29 ft 1 kts 25°
2026-04-29 10:49 -17.75310 177.44917 28 ft 0 kts
2026-04-29 10:50 -17.75285 177.44921 28 ft 9 kts
2026-04-29 10:51 -17.75191 177.44940 31 ft 16 kts 11°
2026-04-29 10:51 -17.75088 177.44963 31 ft 15 kts
2026-04-29 10:51 -17.75035 177.44886 32 ft 14 kts 285°
2026-04-29 10:51 -17.75012 177.44790 29 ft 13 kts 282°
2026-04-29 10:52 -17.75031 177.44719 31 ft 1 kts 219°
2026-04-29 10:52 -17.75094 177.44667 30 ft 44 kts 216°
2026-04-29 10:53 -17.75358 177.44456 30 ft 97 kts 217°
2026-04-29 10:53 -17.76379 177.43638 144 ft 169 kts 214°
2026-04-29 10:53 -17.77024 177.43128 651 ft 174 kts 215°
2026-04-29 10:53 -17.77972 177.42363 1462 ft 180 kts 214°
2026-04-29 10:54 -17.78997 177.41523 2114 ft 194 kts 213°
2026-04-29 10:54 -17.80142 177.40590 2428 ft 217 kts 213°
2026-04-29 10:54 -17.81363 177.39533 2668 ft 241 kts 226°
2026-04-29 10:54 -17.82016 177.37876 3130 ft 256 kts 266°
2026-04-29 10:55 -17.81579 177.36061 3680 ft 266 kts 302°
2026-04-29 10:55 -17.80233 177.34672 4196 ft 276 kts 331°
2026-04-29 10:55 -17.78454 177.34008 4893 ft 281 kts 356°
2026-04-29 10:55 -17.76517 177.34310 5601 ft 277 kts 25°
2026-04-29 10:56 -17.74796 177.35180 6411 ft 277 kts 28°
2026-04-29 10:56 -17.73045 177.36057 7193 ft 278 kts 27°
2026-04-29 10:56 -17.71262 177.36917 7810 ft 283 kts 26°
2026-04-29 10:56 -17.69453 177.37768 8495 ft 287 kts 26°
2026-04-29 10:57 -17.67638 177.38608 9173 ft 291 kts 24°
2026-04-29 10:57 -17.65649 177.39039 9833 ft 298 kts 358°
2026-04-29 10:57 -17.63634 177.38462 10366 ft 309 kts 334°
2026-04-29 10:57 -17.61691 177.37300 10525 ft 332 kts 329°
2026-04-29 10:58 -17.59684 177.35968 10690 ft 351 kts 328°
2026-04-29 10:58 -17.57596 177.34555 11048 ft 361 kts 328°
2026-04-29 10:58 -17.55599 177.33207 11624 ft 363 kts 328°
2026-04-29 10:58 -17.53468 177.31782 12278 ft 364 kts 328°
2026-04-29 10:59 -17.51320 177.30360 12882 ft 367 kts 328°
2026-04-29 10:59 -17.49153 177.28935 13529 ft 368 kts 328°
2026-04-29 10:59 -17.46979 177.27511 14130 ft 370 kts 328°
2026-04-29 10:59 -17.44791 177.26082 14657 ft 372 kts 328°
2026-04-29 11:00 -17.42583 177.24641 15169 ft 375 kts 328°
2026-04-29 11:00 -17.40360 177.23192 15705 ft 377 kts 328°
2026-04-29 11:00 -17.38120 177.21732 16228 ft 380 kts 328°
2026-04-29 11:00 -17.35870 177.20266 16694 ft 384 kts 328°
2026-04-29 11:01 -17.33586 177.18779 17149 ft 387 kts 328°
2026-04-29 11:01 -17.31291 177.17284 17647 ft 390 kts 328°
2026-04-29 11:01 -17.28978 177.15779 18136 ft 392 kts 328°
2026-04-29 11:01 -17.26658 177.14268 18576 ft 394 kts 328°
2026-04-29 11:02 -17.24327 177.12751 18998 ft 396 kts 328°
2026-04-29 11:02 -17.21981 177.11225 19433 ft 397 kts 328°
2026-04-29 11:02 -17.19626 177.09694 19858 ft 399 kts 328°
2026-04-29 11:02 -17.17262 177.08158 20241 ft 402 kts 328°
2026-04-29 11:03 -17.14886 177.06613 20647 ft 403 kts 328°
2026-04-29 11:03 -17.12496 177.05059 21060 ft 405 kts 328°
2026-04-29 11:03 -17.10097 177.03500 21460 ft 406 kts 328°
2026-04-29 11:03 -17.07693 177.01937 21849 ft 408 kts 328°
2026-04-29 11:04 -17.05305 177.00386 22224 ft 410 kts 328°
2026-04-29 11:04 -17.03020 176.98902 22577 ft 411 kts 327°
2026-04-29 11:04 -17.00586 176.97320 22929 ft 414 kts 328°
2026-04-29 11:04 -16.98153 176.95741 23264 ft 416 kts 328°
2026-04-29 11:05 -16.95692 176.94143 23608 ft 417 kts 328°
2026-04-29 11:05 -16.93229 176.92545 23954 ft 417 kts 328°
2026-04-29 11:05 -16.90757 176.90942 24257 ft 418 kts 328°
2026-04-29 11:05 -16.88281 176.89337 24516 ft 420 kts 328°
2026-04-29 11:06 -16.85785 176.87719 24772 ft 422 kts 328°
2026-04-29 11:06 -16.83288 176.86100 25047 ft 424 kts 328°
2026-04-29 11:06 -16.80779 176.84475 25322 ft 425 kts 327°
2026-04-29 11:06 -16.78248 176.82836 25590 ft 427 kts 327°
2026-04-29 11:07 -16.75722 176.81200 25848 ft 428 kts 327°
2026-04-29 11:07 -16.73180 176.79555 26094 ft 430 kts 327°
2026-04-29 11:07 -16.70633 176.77907 26352 ft 432 kts 327°
2026-04-29 11:07 -16.68072 176.76251 26607 ft 433 kts 327°
2026-04-29 11:08 -16.65507 176.74592 26823 ft 436 kts 327°
2026-04-29 11:08 -16.62923 176.72922 27006 ft 439 kts 327°
2026-04-29 11:08 -16.60321 176.71240 27241 ft 440 kts 327°
2026-04-29 11:08 -16.57711 176.69554 27491 ft 441 kts 327°
2026-04-29 11:09 -16.55101 176.67869 27739 ft 442 kts 327°
2026-04-29 11:09 -16.52476 176.66174 27961 ft 444 kts 327°
2026-04-29 11:09 -16.49840 176.64473 28173 ft 446 kts 327°
2026-04-29 11:09 -16.47205 176.62772 28391 ft 447 kts 327°
2026-04-29 11:10 -16.44552 176.61061 28611 ft 449 kts 327°
2026-04-29 11:10 -16.41925 176.59368 28822 ft 450 kts 327°
2026-04-29 11:10 -16.39226 176.57628 29031 ft 451 kts 327°
2026-04-29 11:10 -16.36583 176.55925 29231 ft 453 kts 327°
2026-04-29 11:11 -16.33903 176.54198 29428 ft 454 kts 327°
2026-04-29 11:11 -16.31208 176.52463 29611 ft 456 kts 327°
2026-04-29 11:11 -16.28513 176.50727 29827 ft 456 kts 327°
2026-04-29 11:11 -16.25809 176.48987 30065 ft 456 kts 327°
2026-04-29 11:12 -16.23112 176.47253 30311 ft 455 kts 327°
2026-04-29 11:12 -16.20427 176.45523 30588 ft 454 kts 327°
2026-04-29 11:12 -16.17743 176.43792 30836 ft 453 kts 327°
2026-04-29 11:12 -16.15065 176.42063 31070 ft 452 kts 327°
2026-04-29 11:13 -16.12394 176.40340 31292 ft 452 kts 327°
2026-04-29 11:13 -16.09724 176.38618 31564 ft 451 kts 327°
2026-04-29 11:13 -16.07062 176.36901 31843 ft 449 kts 327°
2026-04-29 11:13 -16.04412 176.35193 32108 ft 448 kts 327°
2026-04-29 11:14 -16.01767 176.33489 32353 ft 447 kts 327°
2026-04-29 11:14 -15.99167 176.31814 32614 ft 446 kts 327°
2026-04-29 11:14 -15.96529 176.30116 32885 ft 445 kts 327°
2026-04-29 11:14 -15.93902 176.28425 33129 ft 444 kts 327°
2026-04-29 11:15 -15.91275 176.26735 33338 ft 444 kts 327°
2026-04-29 11:15 -15.88650 176.25046 33592 ft 443 kts 327°
2026-04-29 11:15 -15.86033 176.23363 33876 ft 442 kts 327°
2026-04-29 11:15 -15.83424 176.21686 34121 ft 440 kts 327°
2026-04-29 11:16 -15.80819 176.20011 34314 ft 440 kts 327°
2026-04-29 11:16 -15.78215 176.18338 34496 ft 440 kts 327°
2026-04-29 11:16 -15.75610 176.16665 34685 ft 440 kts 327°
2026-04-29 11:16 -15.73012 176.14997 34894 ft 439 kts 327°
2026-04-29 11:17 -15.70420 176.13332 35082 ft 438 kts 327°
2026-04-29 11:17 -15.67821 176.11664 35240 ft 439 kts 327°
2026-04-29 11:17 -15.65222 176.09996 35419 ft 438 kts 327°
2026-04-29 11:17 -15.62632 176.08335 35618 ft 437 kts 327°
2026-04-29 11:18 -15.60040 176.06674 35797 ft 437 kts 327°
2026-04-29 11:18 -15.57455 176.05018 35929 ft 437 kts 327°
2026-04-29 11:18 -15.54858 176.03353 35972 ft 439 kts 327°
2026-04-29 11:19 -15.49651 176.00017 35983 ft 440 kts 327°
2026-04-29 11:19 -15.45348 175.97261 35989 ft 437 kts 327°
2026-04-29 11:20 -15.40181 175.93953 35988 ft 435 kts 327°
2026-04-29 11:20 -15.35032 175.90659 35982 ft 433 kts 327°
2026-04-29 11:21 -15.29939 175.87402 35990 ft 433 kts 327°
2026-04-29 11:21 -15.24822 175.84132 35986 ft 433 kts 327°
2026-04-29 11:22 -15.19689 175.80853 35988 ft 433 kts 327°
2026-04-29 11:22 -15.14548 175.77571 35989 ft 435 kts 327°
2026-04-29 11:23 -15.09389 175.74279 35991 ft 436 kts 327°
2026-04-29 11:23 -15.04209 175.70976 35988 ft 438 kts 327°
2026-04-29 11:24 -14.99042 175.67684 35988 ft 440 kts 327°
2026-04-29 11:24 -14.93824 175.64360 35989 ft 441 kts 327°
2026-04-29 11:25 -14.88592 175.61030 35978 ft 442 kts 327°
2026-04-29 11:25 -14.83353 175.57697 35975 ft 442 kts 327°
2026-04-29 11:26 -14.75493 175.52701 35973 ft 441 kts 327°
2026-04-29 11:26 -14.70264 175.49379 35976 ft 441 kts 327°
2026-04-29 11:27 -14.65043 175.46065 35975 ft 440 kts 327°
2026-04-29 11:27 -14.59836 175.42761 35971 ft 439 kts 327°
2026-04-29 11:28 -14.54645 175.39468 35970 ft 438 kts 327°
2026-04-29 11:28 -14.49456 175.36180 35971 ft 437 kts 327°
2026-04-29 11:29 -14.44277 175.32899 35970 ft 437 kts 327°
2026-04-29 11:29 -14.39123 175.29636 35974 ft 437 kts 327°
2026-04-29 11:30 -14.33945 175.26360 35975 ft 437 kts 327°
2026-04-29 11:30 -14.28762 175.23082 35969 ft 437 kts 327°
2026-04-29 11:31 -14.23581 175.19807 35969 ft 437 kts 327°
2026-04-29 11:31 -14.18387 175.16526 35971 ft 438 kts 327°
2026-04-29 11:32 -14.13192 175.13245 35971 ft 438 kts 328°
2026-04-29 11:32 -14.07990 175.09963 35965 ft 439 kts 328°
2026-04-29 11:33 -14.03623 175.07208 35973 ft 439 kts 328°
2026-04-29 11:33 -13.97593 175.03408 35965 ft 439 kts 327°
2026-04-29 11:34 -13.93223 175.00654 35966 ft 439 kts 327°
2026-04-29 11:34 -13.88170 174.97472 35955 ft 440 kts 328°
2026-04-29 11:35 -13.82987 174.94210 35963 ft 439 kts 328°
2026-04-29 11:35 -13.77740 174.90909 35967 ft 439 kts 328°
2026-04-29 11:36 -13.72557 174.87650 35952 ft 439 kts 328°
2026-04-29 11:36 -13.67338 174.84370 35949 ft 439 kts 328°
2026-04-29 11:37 -13.62127 174.81098 35957 ft 439 kts 328°
2026-04-29 11:37 -13.56924 174.77832 35961 ft 438 kts 328°
2026-04-29 11:38 -13.51718 174.74565 35954 ft 438 kts 328°
2026-04-29 11:38 -13.46514 174.71302 35950 ft 438 kts 328°
2026-04-29 11:39 -13.41313 174.68042 35953 ft 438 kts 328°
2026-04-29 11:39 -13.36116 174.64786 35958 ft 437 kts 328°
2026-04-29 11:40 -13.30914 174.61529 35952 ft 438 kts 328°
2026-04-29 11:40 -13.25711 174.58273 35941 ft 438 kts 328°
2026-04-29 11:41 -13.20632 174.55096 35955 ft 438 kts 328°
2026-04-29 11:41 -13.17523 174.53152 35955 ft 438 kts 328°
2026-04-29 11:42 -13.12327 174.49905 35943 ft 439 kts 328°
2026-04-29 11:42 -13.07097 174.46637 35945 ft 439 kts 328°
2026-04-29 11:43 -13.01877 174.43378 35954 ft 439 kts 328°
2026-04-29 11:43 -12.96679 174.40134 35946 ft 439 kts 328°
2026-04-29 11:44 -12.91456 174.36876 35946 ft 440 kts 328°
2026-04-29 11:44 -12.86229 174.33618 35949 ft 440 kts 328°
2026-04-29 11:45 -12.81003 174.30361 35946 ft 439 kts 328°
2026-04-29 11:45 -12.75781 174.27108 35939 ft 439 kts 328°
2026-04-29 11:46 -12.70561 174.23859 35931 ft 439 kts 328°
2026-04-29 11:46 -12.65329 174.20603 35945 ft 439 kts 328°
2026-04-29 11:47 -12.60102 174.17353 35941 ft 439 kts 328°
2026-04-29 11:47 -12.54914 174.14128 35929 ft 440 kts 328°
2026-04-29 11:48 -12.49684 174.10878 35940 ft 440 kts 328°
2026-04-29 11:48 -12.44449 174.07627 35950 ft 440 kts 328°
2026-04-29 11:49 -12.39213 174.04376 35935 ft 440 kts 328°
2026-04-29 11:49 -12.33975 174.01127 35926 ft 440 kts 328°
2026-04-29 11:50 -12.28899 173.97979 35942 ft 440 kts 329°
2026-04-29 11:50 -12.23653 173.94727 35940 ft 441 kts 329°
2026-04-29 11:51 -12.18401 173.91473 35928 ft 442 kts 329°
2026-04-29 11:51 -12.13133 173.88211 35931 ft 443 kts 328°
2026-04-29 11:52 -12.07851 173.84941 35939 ft 444 kts 328°
2026-04-29 11:52 -12.02550 173.81662 35930 ft 446 kts 328°
2026-04-29 11:53 -11.97269 173.78396 35921 ft 447 kts 329°
2026-04-29 11:53 -11.91945 173.75105 35930 ft 447 kts 329°
2026-04-29 11:54 -11.86613 173.71810 35929 ft 448 kts 329°
2026-04-29 11:54 -11.81268 173.68509 35921 ft 449 kts 329°
2026-04-29 11:55 -11.75921 173.65209 35928 ft 449 kts 329°
2026-04-29 11:55 -11.70567 173.61906 35930 ft 449 kts 329°
2026-04-29 11:56 -11.65247 173.58625 35921 ft 449 kts 329°
2026-04-29 11:56 -11.59904 173.55331 35920 ft 448 kts 329°
2026-04-29 11:57 -11.54573 173.52046 35922 ft 447 kts 329°
2026-04-29 11:57 -11.49245 173.48765 35927 ft 447 kts 329°
2026-04-29 11:58 -11.43909 173.45480 35921 ft 447 kts 329°
2026-04-29 11:58 -11.38589 173.42207 35927 ft 447 kts 329°
2026-04-29 11:59 -11.33255 173.38927 35927 ft 447 kts 329°
2026-04-29 11:59 -11.27912 173.35642 35918 ft 448 kts 329°
2026-04-29 12:00 -11.22570 173.32359 35925 ft 449 kts 329°
2026-04-29 12:00 -11.17228 173.29078 35929 ft 449 kts 329°
2026-04-29 12:01 -11.11907 173.25811 35918 ft 449 kts 329°
2026-04-29 12:01 -11.06558 173.22528 35914 ft 449 kts 329°
2026-04-29 12:02 -11.01207 173.19246 35922 ft 448 kts 329°
2026-04-29 12:02 -10.95890 173.15985 35919 ft 448 kts 329°
2026-04-29 12:03 -10.90547 173.12711 35904 ft 448 kts 329°
2026-04-29 12:03 -10.85207 173.09439 35919 ft 448 kts 329°
2026-04-29 12:04 -10.79857 173.06162 35918 ft 448 kts 329°
2026-04-29 12:04 -10.74508 173.02888 35909 ft 449 kts 329°
2026-04-29 12:05 -10.69320 172.99714 35915 ft 449 kts 329°
2026-04-29 12:05 -10.63963 172.96437 35917 ft 449 kts 329°
2026-04-29 12:06 -10.58597 172.93156 35910 ft 450 kts 329°
2026-04-29 12:06 -10.53226 172.89874 35912 ft 450 kts 329°
2026-04-29 12:07 -10.47851 172.86590 35920 ft 450 kts 329°
2026-04-29 12:07 -10.42479 172.83310 35909 ft 450 kts 329°
2026-04-29 12:08 -10.37109 172.80032 35908 ft 450 kts 329°
2026-04-29 12:08 -10.31746 172.76760 35915 ft 449 kts 329°
2026-04-29 12:09 -10.26397 172.73497 35908 ft 448 kts 329°
2026-04-29 12:09 -10.21088 172.70261 35908 ft 448 kts 329°
2026-04-29 12:10 -10.15753 172.67009 35915 ft 446 kts 329°
2026-04-29 12:10 -10.10424 172.63763 35908 ft 446 kts 329°
2026-04-29 12:11 -10.05109 172.60526 35906 ft 446 kts 329°
2026-04-29 12:11 -9.99796 172.57292 35912 ft 445 kts 329°
2026-04-29 12:12 -9.94494 172.54065 35905 ft 445 kts 329°
2026-04-29 12:12 -9.89181 172.50833 35900 ft 445 kts 329°
2026-04-29 12:13 -9.84770 172.48150 35911 ft 444 kts 329°
2026-04-29 12:13 -9.79464 172.44926 35899 ft 445 kts 329°
2026-04-29 12:14 -9.74149 172.41699 35909 ft 445 kts 329°
2026-04-29 12:14 -9.68833 172.38473 35909 ft 446 kts 329°
2026-04-29 12:15 -9.63505 172.35240 35900 ft 447 kts 329°
2026-04-29 12:15 -9.58170 172.32002 35908 ft 447 kts 329°
2026-04-29 12:16 -9.52830 172.28763 35908 ft 448 kts 330°
2026-04-29 12:16 -9.47477 172.25518 35898 ft 449 kts 329°
2026-04-29 12:17 -9.42124 172.22273 35902 ft 449 kts 329°
2026-04-29 12:17 -9.36753 172.19019 35899 ft 449 kts 330°
2026-04-29 12:18 -9.31385 172.15768 35895 ft 450 kts 330°
2026-04-29 12:18 -9.26011 172.12514 35902 ft 450 kts 330°
2026-04-29 12:19 -9.20666 172.09280 35896 ft 451 kts 330°
2026-04-29 12:19 -9.15249 172.06002 35895 ft 451 kts 330°
2026-04-29 12:20 -9.09893 172.02763 35902 ft 451 kts 330°
2026-04-29 12:20 -9.04667 171.99603 35901 ft 451 kts 330°
2026-04-29 12:21 -8.99295 171.96356 35893 ft 451 kts 330°
2026-04-29 12:21 -8.93912 171.93105 35901 ft 450 kts 330°
2026-04-29 12:22 -8.88540 171.89860 35891 ft 449 kts 330°
2026-04-29 12:22 -8.83184 171.86627 35898 ft 448 kts 330°
2026-04-29 12:23 -8.77830 171.83395 35903 ft 447 kts 330°
2026-04-29 12:23 -8.72483 171.80170 35893 ft 447 kts 330°
2026-04-29 12:24 -8.67142 171.76948 35899 ft 447 kts 330°
2026-04-29 12:24 -8.61802 171.73729 35901 ft 447 kts 330°
2026-04-29 12:25 -8.56462 171.70510 35896 ft 447 kts 330°
2026-04-29 12:26 -8.48437 171.65675 35894 ft 447 kts 330°
2026-04-29 12:26 -8.43087 171.62453 35905 ft 447 kts 330°
2026-04-29 12:27 -8.37732 171.59230 35892 ft 448 kts 330°
2026-04-29 12:27 -8.32375 171.56006 35897 ft 448 kts 330°
2026-04-29 12:28 -8.27021 171.52785 35897 ft 448 kts 330°
2026-04-29 12:28 -8.21698 171.49583 35887 ft 449 kts 330°
2026-04-29 12:29 -8.16336 171.46359 35902 ft 448 kts 330°
2026-04-29 12:29 -8.10975 171.43137 35895 ft 449 kts 330°
2026-04-29 12:30 -8.05614 171.39915 35894 ft 449 kts 330°
2026-04-29 12:30 -8.00243 171.36689 35901 ft 448 kts 330°
2026-04-29 12:31 -7.94891 171.33475 35892 ft 449 kts 330°
2026-04-29 12:31 -7.89524 171.30253 35898 ft 449 kts 330°
2026-04-29 12:32 -7.84154 171.27031 35890 ft 449 kts 330°
2026-04-29 12:32 -7.78785 171.23810 35900 ft 450 kts 330°
2026-04-29 12:33 -7.73391 171.20575 35900 ft 451 kts 330°
2026-04-29 12:33 -7.67984 171.17333 35898 ft 453 kts 330°
2026-04-29 12:34 -7.62556 171.14080 35897 ft 454 kts 330°
2026-04-29 12:34 -7.57124 171.10825 35898 ft 455 kts 330°
2026-04-29 12:35 -7.51675 171.07560 35897 ft 456 kts 330°
2026-04-29 12:35 -7.46217 171.04291 35882 ft 456 kts 330°
2026-04-29 12:36 -7.40755 171.01021 35898 ft 457 kts 330°
2026-04-29 12:36 -7.35451 170.97847 35896 ft 457 kts 330°
2026-04-29 12:37 -7.29985 170.94576 35895 ft 457 kts 330°
2026-04-29 12:37 -7.24511 170.91302 35897 ft 457 kts 330°
2026-04-29 12:38 -7.19066 170.88046 35889 ft 458 kts 329°
2026-04-29 12:38 -7.13594 170.84774 35895 ft 457 kts 329°
2026-04-29 12:39 -7.08122 170.81504 35890 ft 458 kts 329°
2026-04-29 12:39 -7.02643 170.78230 35892 ft 457 kts 329°
2026-04-29 12:40 -6.97184 170.74969 35896 ft 457 kts 329°
2026-04-29 12:40 -6.91709 170.71699 35891 ft 457 kts 329°
2026-04-29 12:41 -6.86235 170.68432 35894 ft 457 kts 329°
2026-04-29 12:41 -6.80754 170.65160 35892 ft 457 kts 329°
2026-04-29 12:42 -6.75280 170.61894 35893 ft 457 kts 329°
2026-04-29 12:42 -6.69802 170.58626 35896 ft 458 kts 330°
2026-04-29 12:43 -6.64324 170.55359 35892 ft 458 kts 330°
2026-04-29 12:43 -6.58834 170.52085 35900 ft 459 kts 329°
2026-04-29 12:44 -6.53330 170.48805 35891 ft 460 kts 329°
2026-04-29 12:44 -6.47850 170.45539 35897 ft 461 kts 329°
2026-04-29 12:45 -6.42298 170.42231 35892 ft 461 kts 329°
2026-04-29 12:45 -6.36801 170.38957 35891 ft 462 kts 330°
2026-04-29 12:46 -6.31259 170.35657 35898 ft 462 kts 330°
2026-04-29 12:46 -6.25716 170.32358 35886 ft 463 kts 330°
2026-04-29 12:47 -6.20170 170.29056 35902 ft 463 kts 330°
2026-04-29 12:47 -6.14624 170.25756 35894 ft 464 kts 330°
2026-04-29 12:48 -6.09080 170.22458 35891 ft 463 kts 330°
2026-04-29 12:48 -6.03531 170.19158 35896 ft 463 kts 330°
2026-04-29 12:49 -5.97990 170.15863 35882 ft 463 kts 330°
2026-04-29 12:49 -5.92444 170.12566 35896 ft 463 kts 330°
2026-04-29 12:50 -5.86897 170.09269 35895 ft 464 kts 330°
2026-04-29 12:50 -5.81343 170.05968 35901 ft 464 kts 330°
2026-04-29 12:51 -5.75784 170.02665 35895 ft 464 kts 330°
2026-04-29 12:51 -5.70390 169.99460 35893 ft 464 kts 330°
2026-04-29 12:52 -5.64839 169.96126 35898 ft 465 kts 330°
2026-04-29 12:52 -5.59295 169.92778 35880 ft 465 kts 330°
2026-04-29 12:53 -5.53750 169.89433 35898 ft 465 kts 330°
2026-04-29 12:53 -5.48198 169.86087 35884 ft 465 kts 330°
2026-04-29 12:54 -5.42674 169.82761 35899 ft 465 kts 330°
2026-04-29 12:54 -5.38025 169.79962 35884 ft 466 kts 330°
2026-04-29 12:55 -5.32499 169.76636 35898 ft 465 kts 330°
2026-04-29 12:55 -5.26911 169.73273 35884 ft 465 kts 330°
2026-04-29 12:56 -5.21402 169.69958 35898 ft 465 kts 330°
2026-04-29 12:56 -5.15853 169.66621 35883 ft 465 kts 330°
2026-04-29 12:57 -5.10311 169.63287 35890 ft 464 kts 330°
2026-04-29 12:57 -5.04777 169.59960 35895 ft 464 kts 330°
2026-04-29 12:58 -4.99248 169.56636 35882 ft 464 kts 330°
2026-04-29 12:58 -4.93711 169.53308 35896 ft 463 kts 330°
2026-04-29 12:59 -4.88184 169.49986 35877 ft 463 kts 330°
2026-04-29 12:59 -4.82650 169.46662 35896 ft 463 kts 330°
2026-04-29 13:00 -4.77115 169.43337 35878 ft 463 kts 330°
2026-04-29 13:00 -4.71591 169.40019 35896 ft 463 kts 330°
2026-04-29 13:01 -4.66058 169.36697 35892 ft 463 kts 330°
2026-04-29 13:01 -4.60532 169.33379 35894 ft 463 kts 330°
2026-04-29 13:02 -4.55013 169.30067 35886 ft 463 kts 330°
2026-04-29 13:02 -4.49488 169.26750 35892 ft 463 kts 330°
2026-04-29 13:03 -4.43963 169.23435 35881 ft 463 kts 330°
2026-04-29 13:03 -4.38437 169.20120 35895 ft 463 kts 330°
2026-04-29 13:04 -4.32936 169.16820 35897 ft 463 kts 330°
2026-04-29 13:04 -4.27370 169.13483 35891 ft 464 kts 330°
2026-04-29 13:05 -4.21831 169.10161 35886 ft 464 kts 330°
2026-04-29 13:05 -4.16324 169.06859 35896 ft 464 kts 330°
2026-04-29 13:06 -4.10746 169.03516 35889 ft 465 kts 330°
2026-04-29 13:06 -4.05229 169.00209 35895 ft 465 kts 330°
2026-04-29 13:07 -3.99869 168.96998 35889 ft 465 kts 330°
2026-04-29 13:07 -3.94304 168.93663 35890 ft 466 kts 330°
2026-04-29 13:08 -3.88743 168.90332 35889 ft 466 kts 330°
2026-04-29 13:08 -3.83185 168.87003 35887 ft 466 kts 330°
2026-04-29 13:09 -3.77618 168.83669 35887 ft 466 kts 330°
2026-04-29 13:09 -3.72057 168.80339 35890 ft 466 kts 330°
2026-04-29 13:10 -3.66490 168.77007 35888 ft 466 kts 330°
2026-04-29 13:10 -3.60923 168.73674 35881 ft 465 kts 330°
2026-04-29 13:11 -3.55368 168.70349 35888 ft 465 kts 330°
2026-04-29 13:11 -3.49816 168.67027 35884 ft 464 kts 330°
2026-04-29 13:12 -3.44284 168.63717 35878 ft 463 kts 330°
2026-04-29 13:12 -3.38749 168.60406 35880 ft 462 kts 330°
2026-04-29 13:13 -3.33233 168.57106 35883 ft 462 kts 330°
2026-04-29 13:13 -3.27722 168.53810 35890 ft 461 kts 330°
2026-04-29 13:14 -3.22205 168.50511 35888 ft 461 kts 330°
2026-04-29 13:14 -3.16737 168.47242 35887 ft 460 kts 330°
2026-04-29 13:15 -3.11238 168.43954 35887 ft 460 kts 330°
2026-04-29 13:15 -3.05735 168.40664 35884 ft 461 kts 330°
2026-04-29 13:16 -3.00229 168.37373 35888 ft 461 kts 330°
2026-04-29 13:16 -2.94723 168.34083 35889 ft 461 kts 330°
2026-04-29 13:17 -2.89213 168.30790 35886 ft 462 kts 330°
2026-04-29 13:17 -2.83702 168.27497 35880 ft 462 kts 330°
2026-04-29 13:18 -2.78186 168.24202 35886 ft 462 kts 330°
2026-04-29 13:18 -2.72659 168.20900 35530 ft 467 kts 330°
2026-04-29 13:18 -2.69867 168.19233 35157 ft 467 kts 330°
2026-04-29 13:19 -2.67093 168.17575 34725 ft 464 kts 330°
2026-04-29 13:19 -2.64328 168.15924 34322 ft 463 kts 330°
2026-04-29 13:19 -2.61560 168.14270 33920 ft 464 kts 330°
2026-04-29 13:19 -2.58782 168.12611 33478 ft 464 kts 330°
2026-04-29 13:20 -2.56014 168.10958 33036 ft 464 kts 330°
2026-04-29 13:20 -2.53239 168.09301 32593 ft 465 kts 330°
2026-04-29 13:20 -2.50460 168.07642 32159 ft 465 kts 330°
2026-04-29 13:20 -2.47687 168.05986 31737 ft 465 kts 330°
2026-04-29 13:21 -2.44940 168.04346 31317 ft 466 kts 330°
2026-04-29 13:21 -2.42156 168.02684 30901 ft 466 kts 330°
2026-04-29 13:21 -2.39371 168.01021 30489 ft 467 kts 330°
2026-04-29 13:21 -2.36665 167.99406 30103 ft 468 kts 330°
2026-04-29 13:22 -2.33867 167.97736 29669 ft 469 kts 330°
2026-04-29 13:22 -2.31060 167.96060 29192 ft 470 kts 330°
2026-04-29 13:22 -2.28249 167.94383 28736 ft 472 kts 330°
2026-04-29 13:22 -2.25427 167.92698 28284 ft 473 kts 330°
2026-04-29 13:23 -2.22594 167.91007 27840 ft 474 kts 330°
2026-04-29 13:23 -2.19756 167.89314 27395 ft 475 kts 330°
2026-04-29 13:23 -2.16941 167.87633 26957 ft 468 kts 330°
2026-04-29 13:23 -2.14166 167.85977 26528 ft 461 kts 330°
2026-04-29 13:24 -2.11424 167.84339 26089 ft 456 kts 330°
2026-04-29 13:24 -2.08710 167.82720 25683 ft 454 kts 330°
2026-04-29 13:24 -2.06001 167.81103 25274 ft 451 kts 330°
2026-04-29 13:24 -2.03317 167.79502 24875 ft 449 kts 330°
2026-04-29 13:25 -2.00638 167.77904 24474 ft 447 kts 330°
2026-04-29 13:25 -1.95327 167.74736 23705 ft 443 kts 330°
2026-04-29 13:25 -1.92691 167.73163 23274 ft 441 kts 330°
2026-04-29 13:26 -1.90056 167.71591 22825 ft 439 kts 330°
2026-04-29 13:26 -1.87441 167.70032 22370 ft 437 kts 330°
2026-04-29 13:26 -1.84834 167.68476 21923 ft 434 kts 330°
2026-04-29 13:26 -1.82252 167.66936 21480 ft 431 kts 330°
2026-04-29 13:27 -1.79676 167.65400 21062 ft 428 kts 330°
2026-04-29 13:27 -1.77134 167.63883 20657 ft 424 kts 330°
2026-04-29 13:27 -1.74605 167.62375 20256 ft 421 kts 330°
2026-04-29 13:27 -1.72130 167.60898 19867 ft 418 kts 330°
2026-04-29 13:28 -1.69641 167.59414 19472 ft 415 kts 330°
2026-04-29 13:28 -1.67140 167.57923 19088 ft 412 kts 330°
2026-04-29 13:28 -1.64690 167.56462 18718 ft 410 kts 330°
2026-04-29 13:28 -1.62277 167.55023 18392 ft 407 kts 330°
2026-04-29 13:29 -1.59825 167.53561 18041 ft 404 kts 330°
2026-04-29 13:29 -1.57420 167.52126 17660 ft 402 kts 330°
2026-04-29 13:29 -1.55025 167.50698 17284 ft 400 kts 330°
2026-04-29 13:29 -1.52640 167.49276 16913 ft 398 kts 330°
2026-04-29 13:30 -1.50264 167.47860 16544 ft 397 kts 331°
2026-04-29 13:30 -1.47897 167.46448 16182 ft 395 kts 331°
2026-04-29 13:30 -1.45568 167.45060 15831 ft 394 kts 331°
2026-04-29 13:30 -1.43192 167.43643 15471 ft 393 kts 331°
2026-04-29 13:31 -1.40876 167.42262 15123 ft 391 kts 331°
2026-04-29 13:31 -1.38540 167.40870 14778 ft 390 kts 331°
2026-04-29 13:31 -1.36213 167.39482 14434 ft 388 kts 331°
2026-04-29 13:31 -1.33892 167.38099 14095 ft 387 kts 331°
2026-04-29 13:32 -1.31589 167.36726 13760 ft 385 kts 331°
2026-04-29 13:32 -1.29289 167.35355 13397 ft 384 kts 331°
2026-04-29 13:32 -1.27009 167.33996 13014 ft 382 kts 331°
2026-04-29 13:32 -1.24733 167.32639 12644 ft 379 kts 331°
2026-04-29 13:33 -1.22468 167.31289 12276 ft 377 kts 331°
2026-04-29 13:33 -1.20224 167.29951 11910 ft 375 kts 331°
2026-04-29 13:33 -1.18745 167.29069 11670 ft 371 kts 331°
2026-04-29 13:33 -1.16547 167.27758 11310 ft 365 kts 331°
2026-04-29 13:34 -1.14378 167.26465 10960 ft 360 kts 331°
2026-04-29 13:34 -1.12247 167.25195 10605 ft 352 kts 331°
2026-04-29 13:34 -1.09499 167.23555 10149 ft 334 kts 331°
2026-04-29 13:34 -1.08191 167.22775 9946 ft 326 kts 331°
2026-04-29 13:35 -1.06275 167.21632 9626 ft 315 kts 331°
2026-04-29 13:35 -1.04423 167.20528 9287 ft 305 kts 331°
2026-04-29 13:35 -1.02625 167.19457 8964 ft 296 kts 331°
2026-04-29 13:35 -1.00874 167.18414 8653 ft 290 kts 331°
2026-04-29 13:36 -0.99151 167.17388 8359 ft 288 kts 331°
2026-04-29 13:36 -0.97431 167.16364 8081 ft 287 kts 331°
2026-04-29 13:36 -0.95716 167.15343 7789 ft 287 kts 331°
2026-04-29 13:36 -0.94004 167.14323 7500 ft 286 kts 331°
2026-04-29 13:37 -0.92295 167.13305 7228 ft 286 kts 331°
2026-04-29 13:37 -0.90585 167.12286 6949 ft 285 kts 331°
2026-04-29 13:37 -0.88881 167.11271 6670 ft 285 kts 331°
2026-04-29 13:37 -0.87182 167.10258 6396 ft 284 kts 331°
2026-04-29 13:38 -0.85485 167.09246 6114 ft 284 kts 331°
2026-04-29 13:38 -0.83789 167.08236 5822 ft 285 kts 331°
2026-04-29 13:38 -0.82066 167.07209 5544 ft 288 kts 330°
2026-04-29 13:38 -0.80370 167.06198 5261 ft 287 kts 331°
2026-04-29 13:39 -0.78662 167.05180 4966 ft 285 kts 331°
2026-04-29 13:39 -0.76946 167.04157 4679 ft 283 kts 331°
2026-04-29 13:39 -0.75242 167.03176 4361 ft 281 kts 337°
2026-04-29 13:39 -0.73346 167.02807 3977 ft 279 kts
2026-04-29 13:40 -0.71509 167.03233 3638 ft 271 kts 22°
2026-04-29 13:40 -0.69769 167.03888 3313 ft 265 kts 22°
2026-04-29 13:40 -0.68049 167.04512 2955 ft 259 kts 16°
2026-04-29 13:40 -0.66326 167.04520 2592 ft 243 kts 343°
2026-04-29 13:41 -0.64923 167.03758 2531 ft 219 kts 325°
2026-04-29 13:41 -0.63873 167.02740 2345 ft 206 kts 311°
2026-04-29 13:41 -0.62970 167.01661 2072 ft 197 kts 310°
2026-04-29 13:41 -0.62103 167.00616 1935 ft 194 kts 311°
2026-04-29 13:42 -0.61296 166.99652 1818 ft 182 kts 311°
2026-04-29 13:42 -0.60500 166.98701 1652 ft 176 kts 311°
2026-04-29 13:42 -0.59719 166.97771 1495 ft 173 kts 311°
2026-04-29 13:42 -0.58972 166.96887 1412 ft 158 kts 311°
2026-04-29 13:43 -0.58275 166.96048 1360 ft 157 kts 309°
2026-04-29 13:43 -0.57634 166.95242 1140 ft 147 kts 310°
2026-04-29 13:43 -0.57000 166.94469 834 ft 142 kts 314°
2026-04-29 13:43 -0.56324 166.93741 485 ft 144 kts 315°
2026-04-29 13:44 -0.55666 166.92982 220 ft 142 kts 310°
2026-04-29 13:44 -0.55036 166.92242 33 ft 135 kts 311°
2026-04-29 13:44 -0.54514 166.91625 31 ft 92 kts 310°
2026-04-29 13:44 -0.54245 166.91309 32 ft 42 kts 310°
2026-04-29 13:45 -0.54131 166.91213 31 ft 13 kts 322°
2026-04-29 13:45 -0.54158 166.91204 31 ft 5 kts 98°
2026-04-29 13:45 -0.54178 166.91230 31 ft 6 kts 131°
2026-04-29 13:45 -0.54217 166.91276 31 ft 11 kts 130°
2026-04-29 13:46 -0.54281 166.91352 32 ft 17 kts 130°
2026-04-29 13:46 -0.54371 166.91458 31 ft 23 kts 130°
2026-04-29 13:46 -0.54474 166.91579 30 ft 21 kts 129°
2026-04-29 13:46 -0.54495 166.91662 31 ft 10 kts 38°
2026-04-29 13:47 -0.54455 166.91696 31 ft 7 kts 45°
2026-04-29 13:47 -0.54426 166.91694 31 ft 4 kts 322°
2026-04-29 13:47 -0.54409 166.91676 31 ft 4 kts 309°
2026-04-29 13:47 -0.54407 166.91658 31 ft 1 kts 266°
2026-04-29 13:48 -0.54411 166.91652 31 ft 0 kts 227°
2026-04-29 13:50 -0.54410 166.91652 32 ft 0 kts 221°